KOMPSAT-3A

Last updated on Thu Jul 03 2025 00:02:30 GMT+0000 (Coordinated Universal Time)

1 40536U 15014A 25183.54155865 .00010632 00000+0 29229-3 0 9995 2 40536 97.6569 150.0671 0004659 40.4631 319.6959 15.37390794567833
UTC large
Height (km)
Speed (km/s)
/
Latitude / Longitude
Inclination (degrees)
Orbital Period (minutes)
Azimuth
Elevation
Range (km)
Doppler Factor

Next 0 passes for location: London (51.5072 / 0.1276)

Sorry there are no passes over London.